Time,TemperatureF,DewpointF,PressureIn,WindDirection,WindDirectionDegrees,WindSpeedMPH,WindSpeedGustMPH,Humidity,HourlyPrecipIn,Conditions,Clouds,dailyrainin,SoftwareType,DateUTC
2013-09-04 00:01:00,60.3,52.7,29.80,South,180,0.0,0.0,52,0.00,,,0.00,meteohub,2013-09-04 07:01:00,
2013-09-04 00:06:00,60.1,52.9,29.80,South,180,0.0,0.0,52,0.00,,,0.00,meteohub,2013-09-04 07:06:00,
2013-09-04 00:11:00,59.9,52.7,29.80,South,180,0.0,0.0,52,0.00,,,0.00,meteohub,2013-09-04 07:11:00,
2013-09-04 00:16:00,59.7,52.5,29.80,South,180,0.0,0.0,52,0.00,,,0.00,meteohub,2013-09-04 07:16:00,
2013-09-04 00:21:00,59.7,52.5,29.80,West,270,0.0,0.0,52,0.00,,,0.00,meteohub,2013-09-04 07:21:00,
2013-09-04 00:26:00,59.5,52.7,29.80,South,180,0.0,0.0,52,0.00,,,0.00,meteohub,2013-09-04 07:26:00,
2013-09-04 00:31:00,59.5,52.7,29.80,South,180,0.0,0.0,52,0.00,,,0.00,meteohub,2013-09-04 07:31:00,
2013-09-04 00:36:00,59.4,52.5,29.80,South,180,0.0,0.0,52,0.00,,,0.00,meteohub,2013-09-04 07:36:00,
2013-09-04 00:41:00,59.2,52.7,29.80,South,180,0.0,0.0,52,0.00,,,0.00,meteohub,2013-09-04 07:41:00,
2013-09-04 00:46:00,59.4,52.9,29.80,South,180,0.0,0.0,52,0.00,,,0.00,meteohub,2013-09-04 07:46:00,
2013-09-04 00:51:00,59.4,52.9,29.80,West,270,0.0,0.0,52,0.00,,,0.00,meteohub,2013-09-04 07:51:00,
2013-09-04 00:57:00,59.4,52.9,29.80,West,270,0.0,0.0,52,0.00,,,0.00,meteohub,2013-09-04 07:57:00,
2013-09-04 01:02:00,59.2,52.7,29.80,West,270,0.0,0.0,52,0.00,,,0.00,meteohub,2013-09-04 08:02:00,
2013-09-04 01:07:00,58.8,53.1,29.80,South,180,0.0,0.0,52,0.00,,,0.00,meteohub,2013-09-04 08:07:00,
2013-09-04 01:12:00,58.8,53.1,29.79,South,180,0.0,0.0,52,0.00,,,0.00,meteohub,2013-09-04 08:12:00,
2013-09-04 01:17:00,58.8,53.1,29.80,South,180,0.0,0.0,52,0.00,,,0.00,meteohub,2013-09-04 08:17:00,
2013-09-04 01:22:00,58.8,53.1,29.80,South,180,0.0,0.0,52,0.00,,,0.00,meteohub,2013-09-04 08:22:00,
2013-09-04 01:27:00,58.8,53.1,29.79,South,180,0.0,0.0,52,0.00,,,0.00,meteohub,2013-09-04 08:27:00,
2013-09-04 01:32:00,58.8,53.4,29.79,South,180,0.0,0.0,52,0.00,,,0.00,meteohub,2013-09-04 08:32:00,
2013-09-04 01:37:00,58.6,53.2,29.80,South,180,0.0,0.0,52,0.00,,,0.00,meteohub,2013-09-04 08:37:00,
2013-09-04 01:42:00,58.5,53.1,29.80,South,180,0.0,0.0,52,0.00,,,0.00,meteohub,2013-09-04 08:42:00,
2013-09-04 01:47:00,58.5,53.1,29.79,South,180,0.0,0.0,52,0.00,,,0.00,meteohub,2013-09-04 08:47:00,
2013-09-04 01:52:00,58.5,53.1,29.79,South,180,0.0,0.0,52,0.00,,,0.00,meteohub,2013-09-04 08:52:00,
2013-09-04 01:57:00,58.5,53.1,29.80,South,180,0.0,0.0,52,0.00,,,0.00,meteohub,2013-09-04 08:57:00,
2013-09-04 02:02:00,58.3,52.9,29.80,South,180,0.0,0.0,52,0.00,,,0.00,meteohub,2013-09-04 09:02:00,
2013-09-04 02:07:00,58.5,53.2,29.80,South,180,0.0,0.0,52,0.00,,,0.00,meteohub,2013-09-04 09:07:00,
2013-09-04 02:12:00,58.3,53.1,29.80,South,180,0.0,0.0,52,0.00,,,0.00,meteohub,2013-09-04 09:12:00,
2013-09-04 02:17:00,58.1,52.7,29.80,South,180,0.0,0.0,52,0.00,,,0.00,meteohub,2013-09-04 09:17:00,
2013-09-04 02:22:00,58.1,52.7,29.80,South,180,0.0,0.0,52,0.00,,,0.00,meteohub,2013-09-04 09:22:00,
2013-09-04 02:27:00,58.1,52.7,29.80,South,180,0.0,1.0,52,0.00,,,0.00,meteohub,2013-09-04 09:27:00,
2013-09-04 02:32:00,57.9,52.5,29.80,South,180,0.0,1.0,52,0.00,,,0.00,meteohub,2013-09-04 09:32:00,
2013-09-04 02:37:00,57.9,52.5,29.80,South,180,0.0,1.0,52,0.00,,,0.00,meteohub,2013-09-04 09:37:00,
2013-09-04 02:42:00,57.7,52.3,29.80,South,180,0.0,1.0,52,0.00,,,0.00,meteohub,2013-09-04 09:42:00,
2013-09-04 02:47:00,57.9,52.5,29.80,South,180,0.0,1.0,52,0.00,,,0.00,meteohub,2013-09-04 09:47:00,
2013-09-04 02:52:00,58.1,52.7,29.80,South,180,0.0,1.0,52,0.00,,,0.00,meteohub,2013-09-04 09:52:00,
2013-09-04 02:57:00,58.1,52.3,29.80,South,180,0.0,1.0,52,0.00,,,0.00,meteohub,2013-09-04 09:57:00,
2013-09-04 03:02:00,58.1,52.3,29.80,South,180,0.0,1.0,52,0.00,,,0.00,meteohub,2013-09-04 10:02:00,
2013-09-04 03:07:00,58.1,52.3,29.80,South,180,0.0,0.0,52,0.00,,,0.00,meteohub,2013-09-04 10:07:00,
2013-09-04 03:12:00,57.7,52.3,29.80,South,180,0.0,0.0,52,0.00,,,0.00,meteohub,2013-09-04 10:12:00,
2013-09-04 03:17:00,57.6,52.2,29.80,South,180,0.0,0.0,52,0.00,,,0.00,meteohub,2013-09-04 10:17:00,
2013-09-04 03:22:00,57.6,52.2,29.80,South,180,0.0,0.0,52,0.00,,,0.00,meteohub,2013-09-04 10:22:00,
2013-09-04 03:27:00,57.4,52.0,29.81,South,180,0.0,0.0,52,0.00,,,0.00,meteohub,2013-09-04 10:27:00,
2013-09-04 03:32:00,57.4,52.3,29.80,South,180,0.0,0.0,52,0.00,,,0.00,meteohub,2013-09-04 10:32:00,
2013-09-04 03:37:00,57.4,52.3,29.80,South,180,0.0,0.0,52,0.00,,,0.00,meteohub,2013-09-04 10:37:00,
2013-09-04 03:42:00,57.4,52.3,29.81,South,180,0.0,0.0,52,0.00,,,0.00,meteohub,2013-09-04 10:42:00,
2013-09-04 03:47:00,57.2,52.2,29.80,South,180,0.0,0.0,52,0.00,,,0.00,meteohub,2013-09-04 10:47:00,
2013-09-04 03:52:00,57.2,52.2,29.80,South,180,0.0,0.0,52,0.00,,,0.00,meteohub,2013-09-04 10:52:00,
2013-09-04 03:57:00,57.0,52.2,29.80,South,180,0.0,0.0,52,0.00,,,0.00,meteohub,2013-09-04 10:57:00,
2013-09-04 04:02:00,57.0,52.5,29.80,South,180,0.0,0.0,52,0.00,,,0.00,meteohub,2013-09-04 11:02:00,
2013-09-04 04:07:00,56.8,52.3,29.80,South,180,0.0,0.0,52,0.00,,,0.00,meteohub,2013-09-04 11:07:00,
2013-09-04 04:12:00,56.8,52.3,29.80,South,180,0.0,0.0,53,0.00,,,0.00,meteohub,2013-09-04 11:12:00,
2013-09-04 04:17:00,56.7,52.2,29.80,South,180,0.0,0.0,53,0.00,,,0.00,meteohub,2013-09-04 11:17:00,
2013-09-04 04:22:00,56.7,52.2,29.80,South,180,0.0,0.0,53,0.00,,,0.00,meteohub,2013-09-04 11:22:00,
2013-09-04 04:27:00,56.5,52.0,29.80,South,180,0.0,0.0,53,0.00,,,0.00,meteohub,2013-09-04 11:27:00,
2013-09-04 04:32:00,56.7,52.2,29.80,South,180,0.0,0.0,53,0.00,,,0.00,meteohub,2013-09-04 11:32:00,
2013-09-04 04:37:00,56.5,52.0,29.80,South,180,0.0,0.0,53,0.00,,,0.00,meteohub,2013-09-04 11:37:00,
2013-09-04 04:42:00,56.5,52.0,29.80,South,180,0.0,0.0,53,0.00,,,0.00,meteohub,2013-09-04 11:42:00,
2013-09-04 04:47:00,56.3,51.8,29.80,South,180,0.0,0.0,53,0.00,,,0.00,meteohub,2013-09-04 11:47:00,
2013-09-04 04:52:00,56.3,51.8,29.80,South,180,0.0,0.0,53,0.00,,,0.00,meteohub,2013-09-04 11:52:00,
2013-09-04 04:57:00,56.3,51.8,29.80,West,270,0.0,0.0,53,0.00,,,0.00,meteohub,2013-09-04 11:57:00,
2013-09-04 05:02:00,56.3,51.8,29.80,West,270,0.0,0.0,53,0.00,,,0.00,meteohub,2013-09-04 12:02:00,
2013-09-04 05:07:00,56.3,51.8,29.80,West,270,0.0,0.0,53,0.00,,,0.00,meteohub,2013-09-04 12:07:00,
2013-09-04 05:12:00,56.3,52.2,29.80,SW,225,0.0,0.0,53,0.00,,,0.00,meteohub,2013-09-04 12:12:00,
2013-09-04 05:17:00,56.1,52.0,29.80,West,270,0.0,0.0,53,0.00,,,0.00,meteohub,2013-09-04 12:17:00,
2013-09-04 05:22:00,56.1,52.0,29.80,South,180,0.0,0.0,53,0.00,,,0.00,meteohub,2013-09-04 12:22:00,
2013-09-04 05:27:00,55.9,52.2,29.80,South,180,0.0,0.0,53,0.00,,,0.00,meteohub,2013-09-04 12:27:00,
2013-09-04 05:32:00,56.1,52.3,29.80,South,180,0.0,0.0,53,0.00,,,0.00,meteohub,2013-09-04 12:32:00,
2013-09-04 05:37:00,55.9,52.2,29.80,South,180,0.0,0.0,53,0.00,,,0.00,meteohub,2013-09-04 12:37:00,
2013-09-04 05:42:00,55.9,52.2,29.80,South,180,0.0,0.0,53,0.00,,,0.00,meteohub,2013-09-04 12:42:00,
2013-09-04 05:47:00,55.9,52.2,29.80,South,180,0.0,0.0,53,0.00,,,0.00,meteohub,2013-09-04 12:47:00,
2013-09-04 05:52:00,55.9,52.2,29.80,South,180,0.0,0.0,53,0.00,,,0.00,meteohub,2013-09-04 12:52:00,
2013-09-04 05:57:00,55.8,52.0,29.80,South,180,0.0,0.0,54,0.00,,,0.00,meteohub,2013-09-04 12:57:00,
2013-09-04 06:02:00,55.8,52.0,29.80,South,180,0.0,0.0,54,0.00,,,0.00,meteohub,2013-09-04 13:02:00,
2013-09-04 06:07:00,55.8,52.3,29.81,South,180,0.0,0.0,54,0.00,,,0.00,meteohub,2013-09-04 13:07:00,
2013-09-04 06:12:00,55.8,52.3,29.81,South,180,0.0,0.0,54,0.00,,,0.00,meteohub,2013-09-04 13:12:00,
2013-09-04 06:17:00,55.8,52.3,29.81,South,180,0.0,0.0,54,0.00,,,0.00,meteohub,2013-09-04 13:17:00,
2013-09-04 06:22:00,55.8,52.3,29.81,South,180,0.0,0.0,54,0.00,,,0.00,meteohub,2013-09-04 13:22:00,
2013-09-04 06:27:00,55.6,52.2,29.81,South,180,0.0,0.0,54,0.00,,,0.00,meteohub,2013-09-04 13:27:00,
2013-09-04 06:32:00,55.6,52.2,29.81,South,180,0.0,0.0,54,0.00,,,0.00,meteohub,2013-09-04 13:32:00,
2013-09-04 06:37:00,55.4,52.0,29.82,South,180,0.0,0.0,54,0.00,,,0.00,meteohub,2013-09-04 13:37:00,
2013-09-04 06:42:00,55.4,52.0,29.82,South,180,0.0,0.0,54,0.00,,,0.00,meteohub,2013-09-04 13:42:00,
2013-09-04 06:47:00,55.4,52.0,29.82,South,180,0.0,0.0,54,0.00,,,0.00,meteohub,2013-09-04 13:47:00,
2013-09-04 06:52:00,55.4,52.0,29.82,South,180,0.0,0.0,54,0.00,,,0.00,meteohub,2013-09-04 13:52:00,
2013-09-04 06:57:00,55.4,52.2,29.82,South,180,0.0,0.0,54,0.00,,,0.00,meteohub,2013-09-04 13:57:00,
2013-09-04 07:02:00,55.6,52.3,29.83,South,180,0.0,0.0,54,0.00,,,0.00,meteohub,2013-09-04 14:02:00,
2013-09-04 07:07:00,55.9,52.7,29.82,South,180,0.0,0.0,54,0.00,,,0.00,meteohub,2013-09-04 14:07:00,
2013-09-04 07:12:00,56.3,53.1,29.83,South,180,0.0,0.0,54,0.00,,,0.00,meteohub,2013-09-04 14:12:00,
2013-09-04 07:17:00,56.5,53.2,29.82,South,180,0.0,0.0,54,0.00,,,0.00,meteohub,2013-09-04 14:17:00,
2013-09-04 07:22:00,56.7,53.1,29.82,South,180,0.0,0.0,54,0.00,,,0.00,meteohub,2013-09-04 14:22:00,
2013-09-04 07:27:00,57.0,53.4,29.83,South,180,0.0,0.0,54,0.00,,,0.00,meteohub,2013-09-04 14:27:00,
2013-09-04 07:32:00,57.6,53.8,29.82,West,270,0.0,0.0,55,0.00,,,0.00,meteohub,2013-09-04 14:32:00,
2013-09-04 07:37:00,58.1,54.3,29.83,West,270,0.0,0.0,55,0.00,,,0.00,meteohub,2013-09-04 14:37:00,
2013-09-04 07:42:00,58.6,54.9,29.83,West,270,0.0,0.0,55,0.00,,,0.00,meteohub,2013-09-04 14:42:00,
2013-09-04 07:47:00,59.2,55.4,29.83,South,180,0.0,0.0,55,0.00,,,0.00,meteohub,2013-09-04 14:47:00,
2013-09-04 07:52:00,60.1,56.5,29.83,South,180,0.0,0.0,55,0.00,,,0.00,meteohub,2013-09-04 14:52:00,
2013-09-04 07:57:00,61.2,57.2,29.83,West,270,1.0,0.0,56,0.00,,,0.00,meteohub,2013-09-04 14:57:00,
2013-09-04 08:02:00,61.5,57.6,29.83,West,270,0.0,2.0,56,0.00,,,0.00,meteohub,2013-09-04 15:02:00,
2013-09-04 08:07:00,61.9,57.9,29.83,North,0,0.0,2.0,56,0.00,,,0.00,meteohub,2013-09-04 15:07:00,
2013-09-04 08:12:00,62.6,58.1,29.83,SE,135,2.0,2.0,56,0.00,,,0.00,meteohub,2013-09-04 15:12:00,
2013-09-04 08:17:00,63.5,58.6,29.83,NE,45,0.0,2.0,56,0.00,,,0.00,meteohub,2013-09-04 15:17:00,
2013-09-04 08:22:00,63.9,58.6,29.83,SW,225,1.0,2.0,57,0.00,,,0.00,meteohub,2013-09-04 15:22:00,
2013-09-04 08:27:00,64.6,59.4,29.83,North,0,1.0,2.0,57,0.00,,,0.00,meteohub,2013-09-04 15:27:00,
2013-09-04 08:32:00,64.8,58.8,29.83,North,0,0.0,2.0,57,0.00,,,0.00,meteohub,2013-09-04 15:32:00,
2013-09-04 08:37:00,64.9,58.6,29.83,South,180,2.0,2.0,57,0.00,,,0.00,meteohub,2013-09-04 15:37:00,
2013-09-04 08:42:00,66.0,59.4,29.83,North,0,2.0,2.0,57,0.00,,,0.00,meteohub,2013-09-04 15:42:00,
2013-09-04 08:47:00,65.5,58.5,29.83,South,180,1.0,2.0,58,0.00,,,0.00,meteohub,2013-09-04 15:47:00,
2013-09-04 08:52:00,65.8,58.8,29.84,East,90,0.0,2.0,58,0.00,,,0.00,meteohub,2013-09-04 15:52:00,
2013-09-04 08:57:00,66.2,58.5,29.83,North,0,1.0,2.0,58,0.00,,,0.00,meteohub,2013-09-04 15:57:00,
2013-09-04 09:02:00,66.4,57.9,29.84,West,270,0.0,2.0,58,0.00,,,0.00,meteohub,2013-09-04 16:02:00,
2013-09-04 09:07:00,66.4,57.9,29.84,NE,45,1.0,2.0,58,0.00,,,0.00,meteohub,2013-09-04 16:07:00,
2013-09-04 09:12:00,66.6,58.1,29.84,North,0,1.0,2.0,58,0.00,,,0.00,meteohub,2013-09-04 16:12:00,
2013-09-04 09:17:00,66.6,57.6,29.84,NE,45,3.0,3.0,58,0.00,,,0.00,meteohub,2013-09-04 16:17:00,
2013-09-04 09:22:00,67.8,58.5,29.84,North,0,0.0,3.0,58,0.00,,,0.00,meteohub,2013-09-04 16:22:00,
2013-09-04 09:27:00,68.9,58.6,29.84,North,0,1.0,3.0,58,0.00,,,0.00,meteohub,2013-09-04 16:27:00,
2013-09-04 09:32:00,70.0,58.5,29.84,North,0,3.0,3.0,58,0.00,,,0.00,meteohub,2013-09-04 16:32:00,
2013-09-04 09:37:00,71.4,59.5,29.84,West,270,2.0,3.0,58,0.00,,,0.00,meteohub,2013-09-04 16:37:00,
2013-09-04 09:42:00,73.8,60.8,29.84,South,180,2.0,3.0,58,0.00,,,0.00,meteohub,2013-09-04 16:42:00,
2013-09-04 09:47:00,72.0,58.3,29.84,NE,45,2.0,3.0,57,0.00,,,0.00,meteohub,2013-09-04 16:47:00,
2013-09-04 09:52:00,72.7,58.5,29.84,North,0,4.0,4.0,58,0.00,,,0.00,meteohub,2013-09-04 16:52:00,
2013-09-04 09:57:00,71.6,57.0,29.84,North,0,0.0,5.0,57,0.00,,,0.00,meteohub,2013-09-04 16:57:00,
2013-09-04 10:02:00,73.0,58.3,29.84,North,0,2.0,5.0,57,0.00,,,0.00,meteohub,2013-09-04 17:02:00,
2013-09-04 10:07:00,73.0,57.9,29.84,North,0,2.0,5.0,57,0.00,,,0.00,meteohub,2013-09-04 17:07:00,
2013-09-04 10:12:00,73.0,58.3,29.84,North,0,3.0,4.0,57,0.00,,,0.00,meteohub,2013-09-04 17:12:00,
2013-09-04 10:17:00,73.2,57.6,29.84,North,0,2.0,3.0,57,0.00,,,0.00,meteohub,2013-09-04 17:17:00,
2013-09-04 10:22:00,75.2,58.5,29.85,North,0,2.0,4.0,57,0.00,,,0.00,meteohub,2013-09-04 17:22:00,
2013-09-04 10:27:00,76.5,58.6,29.85,NW,315,3.0,4.0,56,0.00,,,0.00,meteohub,2013-09-04 17:27:00,
2013-09-04 10:32:00,77.2,57.7,29.84,West,270,2.0,3.0,56,0.00,,,0.00,meteohub,2013-09-04 17:32:00,
2013-09-04 10:37:00,76.6,59.2,29.85,North,0,2.0,3.0,55,0.00,,,0.00,meteohub,2013-09-04 17:37:00,
2013-09-04 10:42:00,75.0,58.3,29.85,North,0,2.0,4.0,55,0.00,,,0.00,meteohub,2013-09-04 17:42:00,
2013-09-04 10:47:00,74.7,58.8,29.84,NE,45,4.0,4.0,55,0.00,,,0.00,meteohub,2013-09-04 17:47:00,
2013-09-04 10:52:00,77.9,61.0,29.84,North,0,2.0,5.0,55,0.00,,,0.00,meteohub,2013-09-04 17:52:00,
2013-09-04 10:57:00,76.3,57.9,29.84,East,90,6.0,6.0,55,0.00,,,0.00,meteohub,2013-09-04 17:57:00,
2013-09-04 11:02:00,75.2,57.9,29.84,South,180,8.0,8.0,55,0.00,,,0.00,meteohub,2013-09-04 18:02:00,
2013-09-04 11:07:00,76.1,56.7,29.84,North,0,2.0,8.0,55,0.00,,,0.00,meteohub,2013-09-04 18:07:00,
2013-09-04 11:12:00,76.8,55.0,29.84,North,0,4.0,8.0,55,0.00,,,0.00,meteohub,2013-09-04 18:12:00,
2013-09-04 11:17:00,77.9,58.3,29.84,North,0,2.0,8.0,55,0.00,,,0.00,meteohub,2013-09-04 18:17:00,
2013-09-04 11:22:00,77.5,60.6,29.84,North,0,4.0,6.0,55,0.00,,,0.00,meteohub,2013-09-04 18:22:00,
2013-09-04 11:27:00,78.8,56.8,29.83,North,0,2.0,4.0,55,0.00,,,0.00,meteohub,2013-09-04 18:27:00,
2013-09-04 11:32:00,80.2,58.8,29.83,NW,315,2.0,4.0,55,0.00,,,0.00,meteohub,2013-09-04 18:32:00,
2013-09-04 11:37:00,78.6,60.1,29.83,North,0,2.0,4.0,55,0.00,,,0.00,meteohub,2013-09-04 18:37:00,
2013-09-04 11:42:00,77.5,60.1,29.83,North,0,2.0,4.0,55,0.00,,,0.00,meteohub,2013-09-04 18:42:00,
2013-09-04 11:47:00,77.2,60.3,29.83,North,0,2.0,4.0,55,0.00,,,0.00,meteohub,2013-09-04 18:47:00,
2013-09-04 11:52:00,78.8,61.7,29.83,North,0,2.0,4.0,55,0.00,,,0.00,meteohub,2013-09-04 18:52:00,
2013-09-04 11:57:00,78.3,60.8,29.83,NE,45,2.0,4.0,55,0.00,,,0.00,meteohub,2013-09-04 18:57:00,
2013-09-04 12:02:00,77.9,61.5,29.83,West,270,3.0,4.0,55,0.00,,,0.00,meteohub,2013-09-04 19:02:00,
2013-09-04 12:07:00,76.5,61.0,29.83,North,0,3.0,4.0,56,0.00,,,0.00,meteohub,2013-09-04 19:07:00,
2013-09-04 12:12:00,78.1,62.1,29.83,North,0,4.0,4.0,56,0.00,,,0.00,meteohub,2013-09-04 19:12:00,
2013-09-04 12:17:00,79.3,62.2,29.83,North,0,2.0,4.0,56,0.00,,,0.00,meteohub,2013-09-04 19:17:00,
2013-09-04 12:22:00,80.2,62.1,29.83,South,180,3.0,4.0,56,0.00,,,0.00,meteohub,2013-09-04 19:22:00,
2013-09-04 12:27:00,80.8,61.5,29.83,SE,135,2.0,4.0,56,0.00,,,0.00,meteohub,2013-09-04 19:27:00,
2013-09-04 12:32:00,80.4,61.2,29.83,North,0,5.0,5.0,56,0.00,,,0.00,meteohub,2013-09-04 19:32:00,
2013-09-04 12:37:00,79.3,57.9,29.82,North,0,2.0,5.0,56,0.00,,,0.00,meteohub,2013-09-04 19:37:00,
2013-09-04 12:42:00,80.2,56.3,29.82,North,0,4.0,5.0,56,0.00,,,0.00,meteohub,2013-09-04 19:42:00,
2013-09-04 12:47:00,80.1,56.1,29.82,North,0,2.0,5.0,56,0.00,,,0.00,meteohub,2013-09-04 19:47:00,
2013-09-04 12:52:00,81.3,57.4,29.82,North,0,4.0,4.0,56,0.00,,,0.00,meteohub,2013-09-04 19:52:00,
2013-09-04 12:57:00,81.3,56.1,29.82,North,0,3.0,4.0,56,0.00,,,0.00,meteohub,2013-09-04 19:57:00,
2013-09-04 13:02:00,80.6,52.0,29.82,North,0,4.0,4.0,56,0.00,,,0.00,meteohub,2013-09-04 20:02:00,
2013-09-04 13:07:00,82.2,55.6,29.82,North,0,4.0,4.0,56,0.00,,,0.00,meteohub,2013-09-04 20:07:00,
2013-09-04 13:12:00,79.5,53.1,29.82,South,180,6.0,6.0,56,0.00,,,0.00,meteohub,2013-09-04 20:12:00,
2013-09-04 13:17:00,82.8,55.9,29.81,NE,45,2.0,6.0,55,0.00,,,0.00,meteohub,2013-09-04 20:17:00,
2013-09-04 13:22:00,81.9,53.8,29.81,NE,45,4.0,6.0,55,0.00,,,0.00,meteohub,2013-09-04 20:22:00,
2013-09-04 13:27:00,81.3,53.2,29.81,North,0,2.0,6.0,55,0.00,,,0.00,meteohub,2013-09-04 20:27:00,
2013-09-04 13:32:00,80.6,54.0,29.81,East,90,4.0,4.0,55,0.00,,,0.00,meteohub,2013-09-04 20:32:00,
2013-09-04 13:37:00,83.5,56.7,29.81,North,0,2.0,8.0,55,0.00,,,0.00,meteohub,2013-09-04 20:37:00,
2013-09-04 13:42:00,82.8,55.9,29.81,North,0,2.0,8.0,55,0.00,,,0.00,meteohub,2013-09-04 20:42:00,
2013-09-04 13:47:00,82.8,55.9,29.81,North,0,2.0,8.0,54,0.00,,,0.00,meteohub,2013-09-04 20:47:00,
2013-09-04 13:52:00,82.8,55.9,29.81,North,0,5.0,5.0,54,0.00,,,0.00,meteohub,2013-09-04 20:52:00,
2013-09-04 13:57:00,80.2,55.0,29.80,East,90,4.0,5.0,54,0.00,,,0.00,meteohub,2013-09-04 20:57:00,
2013-09-04 14:02:00,83.3,58.5,29.80,North,0,5.0,8.0,54,0.00,,,0.00,meteohub,2013-09-04 21:02:00,
2013-09-04 14:07:00,82.2,56.1,29.80,NE,45,4.0,8.0,53,0.00,,,0.00,meteohub,2013-09-04 21:07:00,
2013-09-04 14:12:00,83.3,57.7,29.80,NE,45,5.0,8.0,53,0.00,,,0.00,meteohub,2013-09-04 21:12:00,
2013-09-04 14:17:00,81.7,55.8,29.80,North,0,6.0,6.0,53,0.00,,,0.00,meteohub,2013-09-04 21:17:00,
2013-09-04 14:22:00,82.2,56.1,29.80,North,0,4.0,6.0,53,0.00,,,0.00,meteohub,2013-09-04 21:22:00,
2013-09-04 14:27:00,81.5,55.6,29.80,East,90,2.0,6.0,52,0.00,,,0.00,meteohub,2013-09-04 21:27:00,
2013-09-04 14:32:00,81.3,55.4,29.80,North,0,4.0,7.0,52,0.00,,,0.00,meteohub,2013-09-04 21:32:00,
2013-09-04 14:37:00,82.2,56.1,29.80,West,270,3.0,7.0,52,0.00,,,0.00,meteohub,2013-09-04 21:37:00,
2013-09-04 14:42:00,84.4,58.1,29.80,North,0,2.0,7.0,52,0.00,,,0.00,meteohub,2013-09-04 21:42:00,
2013-09-04 14:47:00,82.4,56.3,29.79,West,270,4.0,5.0,52,0.00,,,0.00,meteohub,2013-09-04 21:47:00,
2013-09-04 14:52:00,83.5,57.4,29.79,SE,135,4.0,5.0,52,0.00,,,0.00,meteohub,2013-09-04 21:52:00,
2013-09-04 14:57:00,82.8,56.7,29.80,NW,315,3.0,7.0,52,0.00,,,0.00,meteohub,2013-09-04 21:57:00,
2013-09-04 15:02:00,83.7,56.8,29.79,North,0,4.0,7.0,52,0.00,,,0.00,meteohub,2013-09-04 22:02:00,
2013-09-04 15:07:00,82.2,56.1,29.79,NW,315,4.0,6.0,52,0.00,,,0.00,meteohub,2013-09-04 22:07:00,
2013-09-04 15:12:00,82.9,56.8,29.79,SW,225,0.0,6.0,52,0.00,,,0.00,meteohub,2013-09-04 22:12:00,
2013-09-04 15:17:00,81.0,53.6,29.79,North,0,7.0,7.0,52,0.00,,,0.00,meteohub,2013-09-04 22:17:00,
2013-09-04 15:23:00,82.2,56.1,29.79,NW,315,2.0,8.0,52,0.00,,,0.00,meteohub,2013-09-04 22:23:00,
2013-09-04 15:28:00,81.3,54.7,29.79,North,0,4.0,8.0,52,0.00,,,0.00,meteohub,2013-09-04 22:28:00,
2013-09-04 15:33:00,81.0,55.0,29.78,West,270,2.0,8.0,52,0.00,,,0.00,meteohub,2013-09-04 22:33:00,
2013-09-04 15:38:00,81.0,55.0,29.78,North,0,4.0,4.0,52,0.00,,,0.00,meteohub,2013-09-04 22:38:00,
2013-09-04 15:43:00,81.7,55.8,29.78,NW,315,4.0,5.0,52,0.00,,,0.00,meteohub,2013-09-04 22:43:00,
2013-09-04 15:48:00,81.7,55.8,29.78,North,0,3.0,5.0,52,0.00,,,0.00,meteohub,2013-09-04 22:48:00,
2013-09-04 15:53:00,81.0,55.0,29.78,NE,45,4.0,8.0,51,0.00,,,0.00,meteohub,2013-09-04 22:53:00,
2013-09-04 15:58:00,81.3,55.4,29.78,East,90,4.0,8.0,51,0.00,,,0.00,meteohub,2013-09-04 22:58:00,
2013-09-04 16:03:00,82.4,57.7,29.78,West,270,2.0,8.0,51,0.00,,,0.00,meteohub,2013-09-04 23:03:00,
2013-09-04 16:08:00,81.0,55.0,29.77,North,0,2.0,7.0,51,0.00,,,0.00,meteohub,2013-09-04 23:08:00,
2013-09-04 16:13:00,80.6,54.7,29.78,North,0,3.0,8.0,51,0.00,,,0.00,meteohub,2013-09-04 23:13:00,
2013-09-04 16:18:00,80.6,55.4,29.77,East,90,4.0,8.0,51,0.00,,,0.00,meteohub,2013-09-04 23:18:00,
2013-09-04 16:24:00,80.8,55.6,29.77,North,0,4.0,8.0,50,0.00,,,0.00,meteohub,2013-09-04 23:24:00,
2013-09-04 16:29:00,80.8,56.1,29.78,North,0,5.0,5.0,50,0.00,,,0.00,meteohub,2013-09-04 23:29:00,
2013-09-04 16:34:00,79.3,55.6,29.77,North,0,6.0,6.0,51,0.00,,,0.00,meteohub,2013-09-04 23:34:00,
2013-09-04 16:39:00,79.7,56.5,29.77,North,0,4.0,6.0,50,0.00,,,0.00,meteohub,2013-09-04 23:39:00,
2013-09-04 16:44:00,79.0,55.8,29.77,North,0,3.0,6.0,50,0.00,,,0.00,meteohub,2013-09-04 23:44:00,
2013-09-04 16:49:00,79.7,56.5,29.77,NW,315,3.0,6.0,50,0.00,,,0.00,meteohub,2013-09-04 23:49:00,
2013-09-04 16:54:00,78.8,55.6,29.77,SW,225,4.0,5.0,50,0.00,,,0.00,meteohub,2013-09-04 23:54:00,
2013-09-04 16:59:00,78.8,55.6,29.77,NE,45,4.0,5.0,50,0.00,,,0.00,meteohub,2013-09-04 23:59:00,
2013-09-04 17:04:00,78.1,55.6,29.77,East,90,5.0,5.0,50,0.00,,,0.00,meteohub,2013-09-05 00:04:00,
2013-09-04 17:09:00,77.4,55.6,29.77,NE,45,3.0,5.0,50,0.00,,,0.00,meteohub,2013-09-05 00:09:00,
2013-09-04 17:15:00,79.0,55.8,29.77,North,0,3.0,6.0,50,0.00,,,0.00,meteohub,2013-09-05 00:15:00,
2013-09-04 17:20:00,79.5,55.8,29.77,NW,315,4.0,6.0,50,0.00,,,0.00,meteohub,2013-09-05 00:20:00,
2013-09-04 17:25:00,78.3,54.5,29.76,West,270,3.0,10.0,50,0.00,,,0.00,meteohub,2013-09-05 00:25:00,
2013-09-04 17:30:00,78.4,54.7,29.76,NE,45,3.0,10.0,50,0.00,,,0.00,meteohub,2013-09-05 00:30:00,
2013-09-04 17:35:00,79.7,55.2,29.76,NW,315,5.0,10.0,50,0.00,,,0.00,meteohub,2013-09-05 00:35:00,
2013-09-04 17:40:00,79.0,54.5,29.76,North,0,2.0,8.0,50,0.00,,,0.00,meteohub,2013-09-05 00:40:00,
2013-09-04 17:45:00,77.2,54.9,29.76,West,270,2.0,7.0,50,0.00,,,0.00,meteohub,2013-09-05 00:45:00,
2013-09-04 17:50:00,78.1,55.0,29.76,West,270,4.0,7.0,49,0.00,,,0.00,meteohub,2013-09-05 00:50:00,
2013-09-04 17:55:00,77.0,54.0,29.76,South,180,7.0,7.0,49,0.00,,,0.00,meteohub,2013-09-05 00:55:00,
2013-09-04 18:00:00,76.6,54.3,29.76,North,0,2.0,7.0,49,0.00,,,0.00,meteohub,2013-09-05 01:00:00,
2013-09-04 18:05:00,75.9,54.3,29.76,North,0,3.0,7.0,49,0.00,,,0.00,meteohub,2013-09-05 01:05:00,
2013-09-04 18:11:00,75.2,53.6,29.76,East,90,5.0,10.0,49,0.00,,,0.00,meteohub,2013-09-05 01:11:00,
2013-09-04 18:16:00,75.2,54.1,29.76,West,270,6.0,10.0,48,0.00,,,0.00,meteohub,2013-09-05 01:16:00,
2013-09-04 18:21:00,75.0,55.0,29.77,South,180,2.0,10.0,48,0.00,,,0.00,meteohub,2013-09-05 01:21:00,
2013-09-04 18:26:00,74.3,54.5,29.77,South,180,7.0,7.0,48,0.00,,,0.00,meteohub,2013-09-05 01:26:00,
2013-09-04 18:31:00,73.9,54.7,29.77,West,270,2.0,8.0,48,0.00,,,0.00,meteohub,2013-09-05 01:31:00,
2013-09-04 18:36:00,73.4,55.2,29.77,West,270,2.0,8.0,48,0.00,,,0.00,meteohub,2013-09-05 01:36:00,
2013-09-04 18:41:00,72.7,54.5,29.77,West,270,2.0,8.0,48,0.00,,,0.00,meteohub,2013-09-05 01:41:00,
2013-09-04 18:46:00,72.7,55.0,29.77,North,0,4.0,8.0,48,0.00,,,0.00,meteohub,2013-09-05 01:46:00,
2013-09-04 18:51:00,72.3,55.2,29.77,NE,45,2.0,8.0,49,0.00,,,0.00,meteohub,2013-09-05 01:51:00,
2013-09-04 18:57:00,72.1,55.0,29.77,South,180,2.0,8.0,49,0.00,,,0.00,meteohub,2013-09-05 01:57:00,
2013-09-04 19:02:00,71.6,54.1,29.78,North,0,5.0,8.0,49,0.00,,,0.00,meteohub,2013-09-05 02:02:00,
2013-09-04 19:07:00,71.2,55.2,29.77,West,270,5.0,9.0,49,0.00,,,0.00,meteohub,2013-09-05 02:07:00,
2013-09-04 19:12:00,70.9,54.9,29.77,West,270,3.0,9.0,49,0.00,,,0.00,meteohub,2013-09-05 02:12:00,
2013-09-04 19:17:00,70.3,54.9,29.77,North,0,1.0,9.0,49,0.00,,,0.00,meteohub,2013-09-05 02:17:00,
2013-09-04 19:22:00,70.2,55.2,29.78,North,0,1.0,7.0,49,0.00,,,0.00,meteohub,2013-09-05 02:22:00,
2013-09-04 19:27:00,69.8,55.2,29.78,West,270,3.0,7.0,49,0.00,,,0.00,meteohub,2013-09-05 02:27:00,
2013-09-04 19:32:00,69.6,55.9,29.78,West,270,2.0,6.0,49,0.00,,,0.00,meteohub,2013-09-05 02:32:00,
2013-09-04 19:37:00,69.3,56.1,29.78,West,270,0.0,6.0,49,0.00,,,0.00,meteohub,2013-09-05 02:37:00,
2013-09-04 19:42:00,68.7,55.6,29.78,North,0,2.0,6.0,49,0.00,,,0.00,meteohub,2013-09-05 02:42:00,
2013-09-04 19:47:00,68.7,55.6,29.78,West,270,3.0,4.0,49,0.00,,,0.00,meteohub,2013-09-05 02:47:00,
2013-09-04 19:52:00,68.4,55.2,29.78,SE,135,2.0,3.0,49,0.00,,,0.00,meteohub,2013-09-05 02:52:00,
2013-09-04 19:57:00,68.0,55.4,29.78,West,270,4.0,4.0,49,0.00,,,0.00,meteohub,2013-09-05 02:57:00,
2013-09-04 20:02:00,68.0,55.4,29.79,West,270,0.0,4.0,49,0.00,,,0.00,meteohub,2013-09-05 03:02:00,
2013-09-04 20:07:00,67.8,55.6,29.79,North,0,0.0,4.0,50,0.00,,,0.00,meteohub,2013-09-05 03:07:00,
2013-09-04 20:12:00,67.5,55.2,29.78,North,0,3.0,4.0,50,0.00,,,0.00,meteohub,2013-09-05 03:12:00,
2013-09-04 20:17:00,67.3,55.0,29.78,North,0,2.0,4.0,50,0.00,,,0.00,meteohub,2013-09-05 03:17:00,
2013-09-04 20:22:00,67.3,55.6,29.79,SW,225,3.0,4.0,50,0.00,,,0.00,meteohub,2013-09-05 03:22:00,
2013-09-04 20:27:00,67.3,55.6,29.79,West,270,2.0,7.0,50,0.00,,,0.00,meteohub,2013-09-05 03:27:00,
2013-09-04 20:32:00,67.1,55.8,29.79,North,0,0.0,7.0,50,0.00,,,0.00,meteohub,2013-09-05 03:32:00,
2013-09-04 20:37:00,66.7,55.4,29.79,West,270,6.0,7.0,50,0.00,,,0.00,meteohub,2013-09-05 03:37:00,
2013-09-04 20:42:00,66.6,55.6,29.80,North,0,3.0,6.0,50,0.00,,,0.00,meteohub,2013-09-05 03:42:00,
2013-09-04 20:47:00,66.6,56.1,29.79,West,270,1.0,6.0,50,0.00,,,0.00,meteohub,2013-09-05 03:47:00,
2013-09-04 20:52:00,66.4,55.9,29.80,West,270,2.0,6.0,50,0.00,,,0.00,meteohub,2013-09-05 03:52:00,
2013-09-04 20:57:00,66.0,55.9,29.80,North,0,0.0,4.0,50,0.00,,,0.00,meteohub,2013-09-05 03:57:00,
2013-09-04 21:01:00,65.7,55.9,29.80,North,0,0.0,2.0,50,0.00,,,0.00,meteohub,2013-09-05 04:01:00,
2013-09-04 21:02:00,65.7,55.9,29.80,North,0,0.0,2.0,50,0.00,,,0.00,meteohub,2013-09-05 04:02:00,
2013-09-04 21:05:00,65.5,55.8,29.81,North,0,0.0,2.0,51,0.00,,,0.00,meteohub,2013-09-05 04:05:00,
2013-09-04 21:10:00,65.5,56.3,29.80,North,0,0.0,2.0,51,0.00,,,0.00,meteohub,2013-09-05 04:10:00,
2013-09-04 21:11:00,65.5,56.3,29.80,North,0,2.0,2.0,51,0.00,,,0.00,meteohub,2013-09-05 04:11:00,
2013-09-04 21:17:00,65.5,55.8,29.81,West,270,4.0,4.0,51,0.00,,,0.00,meteohub,2013-09-05 04:17:00,
2013-09-04 21:22:00,65.5,55.8,29.81,West,270,0.0,4.0,50,0.00,,,0.00,meteohub,2013-09-05 04:22:00,
2013-09-04 21:27:00,65.1,55.9,29.81,West,270,0.0,4.0,50,0.00,,,0.00,meteohub,2013-09-05 04:27:00,
2013-09-04 21:32:00,64.8,55.6,29.81,North,0,0.0,4.0,50,0.00,,,0.00,meteohub,2013-09-05 04:32:00,
2013-09-04 21:37:00,64.8,55.9,29.81,North,0,0.0,2.0,51,0.00,,,0.00,meteohub,2013-09-05 04:37:00,
2013-09-04 21:42:00,64.6,55.8,29.81,West,270,4.0,0.0,51,0.00,,,0.00,meteohub,2013-09-05 04:42:00,
2013-09-04 21:47:00,64.8,56.3,29.81,West,270,1.0,4.0,51,0.00,,,0.00,meteohub,2013-09-05 04:47:00,
2013-09-04 21:52:00,64.9,56.5,29.81,North,0,0.0,4.0,52,0.00,,,0.00,meteohub,2013-09-05 04:52:00,
2013-09-04 21:58:00,64.9,56.8,29.81,SW,225,4.0,4.0,52,0.00,,,0.00,meteohub,2013-09-05 04:58:00,
2013-09-04 22:03:00,64.8,56.7,29.81,West,270,4.0,6.0,52,0.00,,,0.00,meteohub,2013-09-05 05:03:00,
2013-09-04 22:08:00,64.9,57.2,29.82,NE,45,3.0,6.0,53,0.00,,,0.00,meteohub,2013-09-05 05:08:00,
2013-09-04 22:13:00,64.6,56.8,29.81,West,270,3.0,6.0,53,0.00,,,0.00,meteohub,2013-09-05 05:13:00,
2013-09-04 22:18:00,64.4,56.7,29.81,North,0,4.0,6.0,53,0.00,,,0.00,meteohub,2013-09-05 05:18:00,
2013-09-04 22:23:00,64.4,56.7,29.81,West,270,3.0,4.0,53,0.00,,,0.00,meteohub,2013-09-05 05:23:00,
2013-09-04 22:28:00,64.4,57.0,29.81,North,0,2.0,4.0,54,0.00,,,0.00,meteohub,2013-09-05 05:28:00,
2013-09-04 22:33:00,64.4,57.0,29.81,South,180,4.0,4.0,54,0.00,,,0.00,meteohub,2013-09-05 05:33:00,
2013-09-04 22:38:00,64.6,57.2,29.81,North,0,2.0,5.0,54,0.00,,,0.00,meteohub,2013-09-05 05:38:00,
2013-09-04 22:44:00,64.4,56.7,29.81,West,270,2.0,6.0,54,0.00,,,0.00,meteohub,2013-09-05 05:44:00,
2013-09-04 22:49:00,64.4,56.7,29.81,SW,225,2.0,6.0,54,0.00,,,0.00,meteohub,2013-09-05 05:49:00,
2013-09-04 22:54:00,64.4,57.0,29.81,West,270,2.0,6.0,55,0.00,,,0.00,meteohub,2013-09-05 05:54:00,
2013-09-04 22:59:00,64.2,56.5,29.81,South,180,0.0,6.0,55,0.00,,,0.00,meteohub,2013-09-05 05:59:00,
2013-09-04 23:04:00,64.2,56.8,29.81,West,270,4.0,6.0,55,0.00,,,0.00,meteohub,2013-09-05 06:04:00,
2013-09-04 23:09:00,64.2,56.5,29.81,South,180,4.0,6.0,55,0.00,,,0.00,meteohub,2013-09-05 06:09:00,
2013-09-04 23:14:00,64.2,56.5,29.81,NE,45,0.0,7.0,55,0.00,,,0.00,meteohub,2013-09-05 06:14:00,
2013-09-04 23:19:00,64.2,56.5,29.81,North,0,0.0,7.0,55,0.00,,,0.00,meteohub,2013-09-05 06:19:00,
2013-09-04 23:24:00,64.0,56.3,29.81,North,0,0.0,4.0,55,0.00,,,0.00,meteohub,2013-09-05 06:24:00,
2013-09-04 23:30:00,64.0,56.3,29.81,West,270,2.0,4.0,55,0.00,,,0.00,meteohub,2013-09-05 06:30:00,
2013-09-04 23:35:00,64.0,56.3,29.81,West,270,0.0,2.0,55,0.00,,,0.00,meteohub,2013-09-05 06:35:00,
2013-09-04 23:40:00,63.9,56.1,29.81,North,0,0.0,2.0,55,0.00,,,0.00,meteohub,2013-09-05 06:40:00,
2013-09-04 23:45:00,63.5,55.8,29.81,West,270,0.0,2.0,54,0.00,,,0.00,meteohub,2013-09-05 06:45:00,
2013-09-04 23:50:00,63.3,55.6,29.81,West,270,0.0,0.0,54,0.00,,,0.00,meteohub,2013-09-05 06:50:00,
2013-09-04 23:55:00,63.0,55.6,29.81,North,0,0.0,0.0,54,0.00,,,0.00,meteohub,2013-09-05 06:55:00,